This is the latest recevied weather packets stored in our database for station/object KCDH. If no packets are shown the sender has not sent any weather packets the latest 1 day(s).
| Time | Temp. | Humidity | Pressure | Rain* | Wind** | Luminosity | Snow |
|---|---|---|---|---|---|---|---|
| 1778074404 | 12.78° C | 93% | 1012.9 hPa | - | - | - | - |
| 1778073806 | 12.78° C | 93% | 1012.9 hPa | - | - | - | - |
| 1778073209 | 13.89° C | 87% | 1011.9 hPa | - | - | - | - |
| 1778072610 | 13.89° C | 87% | 1011.9 hPa | - | - | - | - |
| 1778070209 | 13.89° C | 93% | 1011.2 hPa | - | - | - | - |
| 1778069007 | 15° C | 93% | 1010.5 hPa | - | - | - | - |
| 1778068408 | 15° C | 93% | 1010.2 hPa | - | - | - | - |
| 1778067206 | 15.56° C | 93% | 1010.2 hPa | - | - | - | - |
| 1778066611 | 15.56° C | 93% | 1010.2 hPa | - | - | - | - |
| 1778066010 | 17.78° C | 88% | 1009.1 hPa | - | - | - | - |
| 1778065407 | 17.78° C | 88% | 1009.1 hPa | - | - | - | - |
| 1778064807 | 23.89° C | 88% | 1008.8 hPa | - | - | - | - |
| 1778064210 | 23.89° C | 88% | 1008.8 hPa | - | - | - | - |
| 1778062408 | 23.89° C | 88% | 1008.1 hPa | - | - | - | - |
| 1778061809 | 23.89° C | 88% | 1008.1 hPa | - | - | - | - |
| 1778058808 | 23.89° C | 88% | 1007.5 hPa | - | - | - | - |
| 1778057610 | 23.89° C | 88% | 1007.1 hPa | - | - | - | - |
| 1778057013 | 23.89° C | 88% | 1007.1 hPa | - | - | - | - |
| 1778056408 | 23.89° C | 88% | 1006.4 hPa | - | - | - | - |
| 1778055807 | 23.89° C | 88% | 1006.4 hPa | - | - | - | - |
| 1778054005 | 23.89° C | 88% | 1006.8 hPa | - | - | - | - |
| 1778052807 | 22.78° C | 94% | 1006.8 hPa | - | - | - | - |
| 1778051009 | 23.89° C | 88% | 1006.8 hPa | - | - | - | - |
| 1778050404 | 22.78° C | 94% | 1007.1 hPa | - | - | - | - |
| 1778048607 | 22.78° C | 94% | 1007.5 hPa | - | - | - | - |
* Rain since midnight (hover to see other rain measurements)
** Current wind speed in m/s (hover to see current wind gust speed)